Погода в Сладкове

Россия / Оренбургская область     51°37′42″N   53°29′00″E
темп.,
°C
ветер,
м/с
пор.,
м/с
влажн.,
%
обл.,
%
осадки,
мм/ч
давл.,
гПа
погр.,
м
13 мая, чт
чт1323:00+17в355522 0.0 102556
02:00+15в410585 0.0 1024153
05:00+14в49582 0.0 1025147
08:00+17вюв411540 0.0 1026296
11:00+23юв68343 0.0 1025699
14:00+26юв67285 0.0 10251454
17:00+27ююв67295 0.0 10241755
20:00+23вюв46450 0.0 102489
14 мая, пт
пт1423:00+19вюв474684 0.0 102499
02:00+17вюв3547100 0.0 102568
05:00+16вюв355037 0.0 102658
08:00+18юв38515 0.0 1026205
11:00+24ююв46365 0.0 1026616
14:00+28ю44243 0.0 10261709
17:00+29ю342316 0.0 10252092
20:00+25ю22383 0.0 102415
15 мая, сб
сб1523:00+21вюв11360 0.0 102411
02:00+19вюв22400 0.0 102413
05:00+17вюв22455 0.0 102514
08:00+20юв23455 0.0 1025117
11:00+26ююв45310 0.0 1025577
14:00+29ю34230 0.0 10242270
17:00+30ююв24230 0.0 10232825
20:00+26вюв223917 0.0 102216
16 мая, вс
вс1623:00+21вюв22414 0.0 102211
02:00+21вюв223790 0.0 102212
05:00+20в224164 0.0 102213
08:00+22вюв365049 0.0 1022179
11:00+27юв463552 0.0 1022594
14:00+30юв34255 0.0 10213209
17:00+30ю652780 0.0 10202735
20:00+26ссв224213 0.1 101921
17 мая, пн
пн1723:00+22ссв344889 0.1 102060
02:00+20вюв33485 0.0 102031
05:00+19вюв22495 0.0 102014
08:00+23вюв23478 0.0 1020126
11:00+27ююв34366 0.0 1020611
14:00+30ююв34245 0.0 10193234
17:00+31ю33215 0.0 10183419
20:00+27ююз113266 0.0 101711